Regional Weather Roundup
Issued by NWS

Home | Current Version | Previous Version | Graphics & Text | Print | Product List | Glossary On
Versions: 1 2 3 4 5 6 7 8 9 10 11 12 13 14 15 16 17 18 19 20 21 22 23 24 25 26 27
000
ASUS45 KCYS 191310
RWRWY

WYOMING REGIONAL WEATHER ROUNDUP
NATIONAL WEATHER SERVICE CHEYENNE WY
600 AM MST SUN FEB 19 2017

NOTE:  "FAIR" INDICATES FEW OR NO CLOUDS BELOW 12,000 FEET
WITH NO SIGNIFICANT WEATHER AND/OR OBSTRUCTIONS TO VISIBILITY.

WYZ001-191400-
YELLOWSTONE NATIONAL PARK

CITY           SKY/WX    TMP DP  RH WIND       PRES   REMARKS
LK YELLOWSTONE   N/A     30  30 100 CALM      29.56S
W YELLOWSTONE  NOT AVBL

$$
WYZ002>013-054>058-071-098>099-191400-
NORTHERN WYOMING

CITY           SKY/WX    TMP DP  RH WIND       PRES   REMARKS
JACKSON        CLOUDY    34  34 100 SW8       29.58R WCI  27
CODY           FAIR      34  26  72 CALM      29.49S
GREYBULL       FAIR      36  30  79 VRB3      29.51R
WORLAND        FAIR      39  32  76 S14       29.51R WCI  31
SHERIDAN       FAIR      31  27  85 S8        29.47F WCI  23
BUFFALO        FAIR      45  25  45 SW8       29.49R
GILLETTE       FAIR      44  32  62 S23       29.50F
HULETT         FAIR      46  32  57 SW14G22   29.55S
NEWCASTLE      FAIR      41  30  65 SE13      29.60F

$$
WYZ014>020-022>026-101>103-191400-
CENTRAL WYOMING

CITY           SKY/WX    TMP DP  RH WIND       PRES   REMARKS
BIG PINEY      CLOUDY    31  29  92 S10       29.64S WCI  22
PINEDALE       FLURRIES  32  32 100 E12       29.65S WCI  23
DUBOIS         CLOUDY    36  28  75 E9        29.54S WCI  29
LANDER         FAIR      31  29  92 CALM      29.56R
RIVERTON       FAIR      29  27  92 NW5       29.56R WCI  24
CASPER         FAIR      38  29  70 N6        29.61S WCI  33
DOUGLAS        FAIR      43  28  55 W3        29.62F

$$
WYZ021-027>030-104>119-191400-
SOUTHERN WYOMING

CITY           SKY/WX    TMP DP  RH WIND       PRES   REMARKS
EVANSTON       FAIR      35  28  75 SW13      29.64S WCI  26
KEMMERER         N/A     32  30  93 S3        29.65F
FORT BRIDGER   PTSUNNY   33  31  95 S3        29.67S
ROCK SPRINGS   FAIR      39  30  70 S25G35    29.64F WCI  28
DIXON            N/A     33  31  92 N6        29.76F WCI  27
RAWLINS        FAIR      35  28  75 CALM      29.70S
SARATOGA       FAIR      34  30  86 SW5       29.71F WCI  30
LARAMIE        FAIR      25  21  85 SW6       29.71F WCI  18
CHEYENNE       FAIR      44  26  49 W16       29.66S
TORRINGTON     FAIR      32  25  75 SE5       29.64S WCI  27
PINE BLUFFS    FAIR      28  25  86 NW9G16    29.69R WCI  20

$$




USA.gov is the U.S. government's official web portal to all federal, state and local government web resources and services.